Kearney, NE

4:47 PM CST on February 24, 2017 (GMT -0600)
Kearney Municipal

Weather History for KEAR - October, 2011

Change the Weather History Date:

Sunday, October 23, 2011

  Actual Average Record
Temperature  
Mean Temperature 56 °F 48 °F  
Max Temperature 75 °F 62 °F 88 °F (1991)
Min Temperature 37 °F 35 °F 15 °F (1981)
Degree Days  
Heating Degree Days 9 17  
Month to date heating degree days 295  
Cooling Degree Days 0 0  
Month to date cooling degree days 4  
Growing Degree Days 6 (Base 50)    
Moisture  
Dew Point 35 °F    
Average Humidity 50    
Maximum Humidity 79    
Minimum Humidity 21    
Precipitation  
Precipitation 0.00 in - 0.42 in (1932)
Sea Level Pressure  
Sea Level Pressure 29.99 in    
Wind  
Wind Speed 6 mph (WNW)    
Max Wind Speed 17 mph    
Max Gust Speed 24 mph    
Visibility 10 miles    
Events      
T = Trace of Precipitation, MM = Missing Value Source: NWS Daily Summary

Daily Weather History Graph

Daily Weather History Graph

Search for Another Location

Airport or City:

Trip Planner

Search our weather history database for the weather conditions in past years. The results will help you decide how hot, cold, wet, or windy it might be!

Date:

Astronomy

Oct. 23, 2011 Rise Set
Actual Time 7:55 AM CDT 6:44 PM CDT
Civil Twilight 7:27 AM CDT 7:12 PM CDT
Nautical Twilight 6:55 AM CDT 7:44 PM CDT
Astronomical Twilight 6:24 AM CDT 8:15 PM CDT
Moon 4:03 AM CDT (10/23) 4:37 PM CDT (10/23)
Length of Visible Light 11h 44m
Length of Day
10h 48m
Waning Crescent, 14% of the Moon is Illuminated
Oct 23
Waning Crescent
Oct 26
New
Nov 2
First Quarter
Nov 10
Full
Nov 18
Last Quarter

Hourly Weather History & Observations

Time (CDT) Temp. Windchill Dew Point Humidity Pressure Visibility Wind Dir Wind Speed Gust Speed Precip Events Conditions
12:15 AM 42.8 °F 39.3 °F 33.8 °F 70% 30.03 in 10.0 mi WNW 5.8 mph - N/A   Clear
12:35 AM 42.8 °F - 33.8 °F 70% 30.02 in 10.0 mi Calm Calm - N/A   Clear
12:55 AM 42.8 °F - 33.8 °F 70% 30.02 in 10.0 mi Calm Calm - N/A   Clear
1:35 AM 39.2 °F - 32.0 °F 75% 30.01 in 10.0 mi Calm Calm - N/A   Clear
1:55 AM 41.0 °F - 32.0 °F 70% 30.01 in 10.0 mi Calm Calm - N/A   Clear
2:35 AM 39.2 °F 37.0 °F 32.0 °F 75% 30.01 in 10.0 mi West 3.5 mph - N/A   Clear
2:55 AM 39.2 °F - 32.0 °F 75% 30.00 in 10.0 mi Calm Calm - N/A   Clear
3:15 AM 39.2 °F - 32.0 °F 75% 30.00 in 10.0 mi Calm Calm - N/A   Clear
3:35 AM 39.2 °F - 33.8 °F 81% 29.99 in 10.0 mi Calm Calm - N/A   Clear
3:55 AM 39.2 °F - 30.2 °F 70% 29.99 in 10.0 mi Calm Calm - N/A   Clear
4:15 AM 39.2 °F 35.9 °F 33.8 °F 81% 29.99 in 10.0 mi West 4.6 mph - N/A   Clear
4:35 AM 41.0 °F - 32.0 °F 70% 29.99 in 10.0 mi Calm Calm - N/A   Clear
4:55 AM 39.2 °F - 32.0 °F 75% 29.98 in 10.0 mi Calm Calm - N/A   Clear
5:15 AM 37.4 °F - 30.2 °F 75% 29.97 in 10.0 mi Calm Calm - N/A   Clear
5:35 AM 39.2 °F 37.0 °F 33.8 °F 81% 29.97 in 10.0 mi West 3.5 mph - N/A   Clear
5:55 AM 39.2 °F 35.0 °F 32.0 °F 75% 29.97 in 10.0 mi SW 5.8 mph - N/A   Clear
6:35 AM 39.2 °F 35.0 °F 33.8 °F 81% 29.98 in 10.0 mi WSW 5.8 mph - N/A   Clear
6:55 AM 41.0 °F 36.4 °F 33.8 °F 76% 29.98 in 10.0 mi WSW 6.9 mph - N/A   Clear
7:55 AM 39.2 °F 37.0 °F 33.8 °F 81% 29.97 in 10.0 mi SW 3.5 mph - N/A   Clear
8:15 AM 39.2 °F - 33.8 °F 81% 29.98 in 10.0 mi Calm Calm - N/A   Clear
8:35 AM 39.2 °F 35.0 °F 33.8 °F 81% 29.98 in 10.0 mi SW 5.8 mph - N/A   Clear
9:15 AM 44.6 °F 40.7 °F 37.4 °F 76% 29.98 in 10.0 mi SW 6.9 mph - N/A   Clear
9:35 AM 48.2 °F - 37.4 °F 66% 29.97 in 10.0 mi WSW 9.2 mph - N/A   Clear
9:55 AM 51.8 °F - 39.2 °F 62% 29.97 in 10.0 mi West 9.2 mph - N/A   Clear
10:15 AM 53.6 °F - 39.2 °F 58% 29.98 in 10.0 mi West 5.8 mph - N/A   Clear
10:35 AM 57.2 °F - 41.0 °F 55% 29.98 in 10.0 mi West 9.2 mph - N/A   Clear
10:55 AM 59.0 °F - 42.8 °F 55% 29.98 in 10.0 mi WSW 6.9 mph - N/A   Clear
11:15 AM 62.6 °F - 41.0 °F 45% 29.98 in 10.0 mi West 11.5 mph 16.1 mph N/A   Clear
11:35 AM 62.6 °F - 41.0 °F 45% 29.98 in 10.0 mi West 11.5 mph - N/A   Clear
11:55 AM 62.6 °F - 41.0 °F 45% 29.98 in 10.0 mi WNW 11.5 mph - N/A   Clear
12:35 PM 66.2 °F - 41.0 °F 40% 29.98 in 10.0 mi NW 10.4 mph - N/A   Clear
1:15 PM 69.8 °F - 39.2 °F 33% 29.98 in 10.0 mi NNW 11.5 mph - N/A   Clear
1:35 PM 71.6 °F - 39.2 °F 31% 29.96 in 10.0 mi North 13.8 mph - N/A   Clear
1:55 PM 73.4 °F - 39.2 °F 29% 29.97 in 10.0 mi North 15.0 mph 21.9 mph N/A   Clear
2:15 PM 73.4 °F - 39.2 °F 29% 29.97 in 10.0 mi NNW 18.4 mph 23.0 mph N/A   Clear
2:35 PM 73.4 °F - 39.2 °F 29% 29.97 in 10.0 mi NNW 19.6 mph 24.2 mph N/A   Clear
3:15 PM 75.2 °F - 35.6 °F 24% 29.97 in 10.0 mi NNW 15.0 mph 24.2 mph N/A   Clear
3:35 PM 75.2 °F - 35.6 °F 24% 29.97 in 10.0 mi NW 15.0 mph 21.9 mph N/A   Clear
3:55 PM 75.2 °F - 33.8 °F 22% 29.97 in 10.0 mi North 17.3 mph - N/A   Clear
4:15 PM 73.4 °F - 33.8 °F 23% 29.97 in 10.0 mi North 17.3 mph 24.2 mph N/A   Clear
4:35 PM 73.4 °F - 33.8 °F 23% 29.97 in 10.0 mi North 15.0 mph - N/A   Clear
4:55 PM 73.4 °F - 33.8 °F 23% 29.97 in 10.0 mi NNW 15.0 mph 18.4 mph N/A   Clear
5:15 PM 73.4 °F - 33.8 °F 23% 29.98 in 10.0 mi North 11.5 mph 17.3 mph N/A   Clear
5:35 PM 71.6 °F - 33.8 °F 25% 29.99 in 10.0 mi NNW 12.7 mph - N/A   Clear
5:55 PM 71.6 °F - 33.8 °F 25% 29.99 in 10.0 mi NNW 11.5 mph - N/A   Clear
6:15 PM 69.8 °F - 33.8 °F 27% 30.00 in 10.0 mi NNW 6.9 mph - N/A   Clear
6:35 PM 66.2 °F - 33.8 °F 30% 30.01 in 10.0 mi North 6.9 mph - N/A   Clear
6:55 PM 66.2 °F - 33.8 °F 30% 30.02 in 10.0 mi Calm Calm - N/A   Clear
7:15 PM 64.4 °F - 33.8 °F 32% 30.02 in 10.0 mi North 3.5 mph - N/A   Clear
7:35 PM 62.6 °F - 33.8 °F 34% 30.02 in 10.0 mi Calm Calm - N/A   Clear
7:55 PM 60.8 °F - 33.8 °F 36% 30.03 in 10.0 mi Calm Calm - N/A   Clear
8:15 PM 60.8 °F - 33.8 °F 36% 30.03 in 10.0 mi Calm Calm - N/A   Clear
8:35 PM 57.2 °F - 33.8 °F 41% 30.04 in 10.0 mi Calm Calm - N/A   Clear
8:55 PM 53.6 °F - 33.8 °F 47% 30.04 in 10.0 mi SSW 3.5 mph - N/A   Clear
9:15 PM 53.6 °F - 33.8 °F 47% 30.05 in 10.0 mi Calm Calm - N/A   Clear
9:35 PM 53.6 °F - 33.8 °F 47% 30.04 in 10.0 mi Calm Calm - N/A   Clear
9:55 PM 53.6 °F - 33.8 °F 47% 30.05 in 10.0 mi SSW 3.5 mph - N/A   Clear
10:15 PM 51.8 °F - 33.8 °F 50% 30.06 in 10.0 mi Calm Calm - N/A   Clear
10:35 PM 48.2 °F - 33.8 °F 58% 30.06 in 10.0 mi Calm Calm - N/A   Clear
10:55 PM 48.2 °F - 33.8 °F 58% 30.07 in 10.0 mi Calm Calm - N/A   Clear
11:15 PM 46.4 °F 45.2 °F 33.8 °F 62% 30.07 in 10.0 mi West 3.5 mph - N/A   Clear
11:35 PM 46.4 °F 43.5 °F 33.8 °F 62% 30.07 in 10.0 mi WNW 5.8 mph - N/A   Clear
11:55 PM 46.4 °F 43.5 °F 33.8 °F 62% 30.07 in 10.0 mi NW 5.8 mph - N/A   Clear